Ascension Island, Ascension Island

6:44 AM GMT on July 28, 2016 (GMT +0000)
Ascension Aux Air Base / Wideawake Field | | Change Station

Elev 259 ft 7.97 °S, 14.41 °W | Updated 54 minutes ago

Partly Cloudy
Partly Cloudy
73 °F
Feels Like 73 °F
N
12
Wind Variable Wind from SE

Today
High -- | Low -- °F
--% Chance of Precip.
Yesterday
High -- | Low -- °F
Precip. -- in
Pressure 30.01 in
Visibility 6.2 miles
Clouds Few 2400 ft
Dew Point 64 °F
Humidity 73%
Rainfall 0.00 in
Snow Depth Not available.
7:11 AM 6:56 PM
Waning Crescent, 35% visible
METAR FHAW 280550Z 14010KT 9999 FEW024 23/18 Q1016 BLU TEMPO SCT022 WHT
Pressure 30.01 in
Visibility 6.2 miles
Clouds Few 2400 ft
Dew Point 64 °F
Humidity 73%
Rainfall 0.00 in
Snow Depth Not available.
7:11 AM 6:56 PM
Waning Crescent, 35% visible
METAR FHAW 280550Z 14010KT 9999 FEW024 23/18 Q1016 BLU TEMPO SCT022 WHT

10-Day Weather Forecast

No radar image for this location.
×

Almanac

Astronomy

Jul. 28, 2016 Rise Set
Actual Time
Civil Twilight
Nautical Twilight
Astronomical Twilight
Moon
Length of Visible Light
Length of Day
Tomorrow will be .
, % of the Moon is Illuminated

Today's Extremes

Country Highs Country Lows

Community

WunderPhotos

Upload Photos

1,928,064 photos uploaded!

WunderBlog® & News

Nearby

Air Quality

  Air Quality AQ Index Pollutant
Not available.

Snow Depth

Station Depth Elevation

Earthquake Activity

City Distance Mag. Time & Date
Minimum magnitude displayed is 2.5.

Coastal Water Temperatures

Place Temperature

Stations

Nearby Weather Stations

Station Location Temp. Windchill Dew Point Humidity Wind Precip. Elev Updated Type